Location: Kennington
(51.1500°N, 0.8833°E)
Time: 11:27:09
(UTC+00:00)

NOSS 3-3 (C) - Pass Details

Date: 21 September 2020
Orbit: 829 x 1383 km, 63.4° (Epoch: 27 October)

Event Time Altitude Azimuth Distance (km) Brightness Sun altitude
Exits shadow 04:44:06 10° 238° (WSW) 2,556 5.6 -9.8°
Maximum altitude 04:50:00 66° 321° (NW) 1,067 4.1 -8.8°
Drops below altitude 10° 04:56:52 10° 43° (NE) 2,947 7.4 -7.8°
Sets 04:59:46 0° 47° (NE) 3,995 8.3 -7.3°
